CW8553 Weather Reports


Display with metric or nautical units.
time (UTC)temp
F
wind
direction
speed
MPH
gust
MPH
rain 1hr
in
rain 24hr
in
rain mn
in
humidity
%
barometer
mb
20260902170042 62 0 0.0 1.0 0.00 0.01 0.00 77 1006.0
20260902164557 62 0 0.0 1.0 0.00 0.01 0.00 77 1006.1
20260902163049 62 0 0.0 1.0 0.00 0.01 0.00 76 1006.2
20260902161555 62 0 0.0 2.0 0.00 0.01 0.00 79 1006.3
20260902160040 62 0 0.0 2.0 0.00 0.01 0.00 80 1006.4
20260902154604 62 0 0.0 4.0 0.00 0.01 0.00 83 1006.5
20260902153046 61 123 2.0 5.0 0.00 0.01 0.00 83 1006.6
20260902151545 60 149 1.0 3.0 0.00 0.01 0.00 88 1006.7
20260902150042 59 0 0.0 2.0 0.00 0.01 0.00 91 1006.9
20260902144549 58 0 0.0 3.0 0.00 0.01 0.00 92 1007.2
20260902143046 56 0 0.0 3.0 0.00 0.01 0.00 93 1007.4
20260902141542 56 0 0.0 0.0 0.00 0.01 0.00 93 1007.5
20260902140048 56 0 0.0 0.0 0.00 0.01 0.00 93 1007.5
20260902134547 56 0 0.0 0.0 0.00 0.01 0.00 93 1007.5
20260902133057 56 0 0.0 0.0 0.00 0.01 0.00 92 1007.5
20260902131546 56 0 0.0 0.0 0.00 0.01 0.00 92 1007.5
20260902130041 57 73 0.0 2.0 0.00 0.01 0.00 92 1007.6
20260902124546 57 0 0.0 1.0 0.00 0.01 0.00 93 1007.9
20260902123043 57 0 0.0 0.0 0.00 0.01 0.00 93 1007.9
20260902121545 57 0 0.0 0.0 0.00 0.01 0.00 93 1008.1
20260902120047 57 0 0.0 0.0 0.00 0.01 0.00 93 1008.2
20260902114546 57 0 0.0 0.0 0.00 0.01 0.00 93 1008.3
20260902113045 57 0 0.0 0.0 0.00 0.01 0.00 93 1008.4
20260902111542 57 0 0.0 0.0 0.00 0.01 0.00 94 1008.4
20260902110049 57 0 0.0 0.0 0.00 0.01 0.00 94 1008.6
20260902104549 57 0 0.0 0.0 0.00 0.01 0.00 93 1008.7
20260902103047 57 0 0.0 0.0 0.00 0.01 0.00 93 1008.8
20260902101546 57 0 0.0 0.0 0.00 0.01 0.00 92 1009.0
20260902100048 57 0 0.0 0.0 0.00 0.01 0.00 92 1009.0
20260902094547 58 0 0.0 0.0 0.00 0.01 0.00 91 1009.0
20260902093102 58 0 0.0 2.0 0.00 0.01 0.00 91 1009.1
20260902091550 59 0 0.0 0.0 0.00 0.01 0.00 91 1009.1
20260902090055 59 0 0.0 0.0 0.00 0.01 0.00 91 1009.2
20260902084554 59 0 0.0 3.0 0.00 0.01 0.00 91 1009.3
20260902083051 59 0 0.0 1.0 0.00 0.01 0.00 92 1009.7
20260902081555 59 0 0.0 0.0 0.00 0.01 0.00 91 1009.7
20260902080043 59 0 0.0 0.0 0.00 0.01 0.00 91 1009.8
20260902074551 59 0 0.0 0.0 0.00 0.01 0.00 91 1009.7
20260902073045 59 0 0.0 0.0 0.00 0.01 0.00 91 1009.8
20260902071551 59 0 0.0 2.0 0.01 0.01 0.00 91 1009.8
20260902070051 60 0 0.0 1.0 0.01 0.01 0.00 91 1009.8
20260902064558 59 0 0.0 0.0 0.01 0.01 0.01 90 1009.9
20260902063046 59 0 0.0 0.0 0.01 0.01 0.01 90 1010.0
20260902061549 59 0 0.0 0.0 0.00 0.00 0.00 89 1010.1
20260902060056 59 0 0.0 3.0 0.00 0.00 0.00 89 1009.9
20260902054546 59 0 0.0 2.0 0.00 0.00 0.00 88 1010.1
20260902053046 59 0 0.0 4.0 0.00 0.00 0.00 88 1010.2
20260902051545 59 263 0.0 5.0 0.00 0.00 0.00 89 1010.3
20260902044605 60 0 0.0 1.0 0.00 0.00 0.00 92 1010.3
20260902043045 60 0 0.0 0.0 0.00 0.00 0.00 93 1010.5
20260902041544 60 0 0.0 1.0 0.00 0.00 0.00 93 1010.4
20260902040051 60 0 0.0 1.0 0.00 0.00 0.00 92 1010.4
20260902034555 60 0 0.0 2.0 0.00 0.00 0.00 92 1010.4
20260902033045 60 0 0.0 0.0 0.00 0.00 0.00 91 1010.3
20260902031547 60 0 0.0 1.0 0.00 0.00 0.00 90 1010.2
20260902030046 60 0 0.0 1.0 0.00 0.00 0.00 89 1010.1
20260902024554 61 0 0.0 3.0 0.00 0.00 0.00 87 1010.1
20260902023048 62 265 0.0 10.0 0.00 0.00 0.00 81 1010.2
20260902021550 63 0 1.0 8.0 0.00 0.00 0.00 82 1010.1
20260902020051 63 0 1.0 6.0 0.00 0.00 0.00 82 1009.9
20260902014544 63 0 0.0 4.0 0.00 0.00 0.00 82 1010.0
20260902013041 63 0 0.0 4.0 0.00 0.00 0.00 81 1009.9
20260902011547 63 0 0.0 4.0 0.00 0.00 0.00 81 1009.9
20260902010045 63 0 0.0 6.0 0.00 0.00 0.00 82 1010.0
20260902004546 63 264 0.0 4.0 0.00 0.00 0.00 81 1010.0
20260902003046 63 243 0.0 5.0 0.00 0.00 0.00 80 1010.0
20260902001538 63 0 0.0 6.0 0.00 0.00 0.00 82 1009.9
20260902000047 63 0 0.0 8.0 0.00 0.00 0.00 82 1010.0
20260901234544 64 232 1.0 6.0 0.00 0.00 0.00 79 1010.0
20260901233044 64 0 0.0 5.0 0.00 0.00 0.00 79 1010.0
20260901231542 63 198 0.0 4.0 0.00 0.00 0.00 80 1010.0
20260901230050 63 262 0.0 3.0 0.00 0.00 0.00 81 1010.0
20260901224545 63 0 0.0 6.0 0.00 0.00 0.00 80 1010.1
20260901223047 64 0 1.0 10.0 0.00 0.00 0.00 79 1010.1
20260901221542 64 0 1.0 4.0 0.00 0.00 0.00 79 1010.1
20260901220049 64 230 0.0 6.0 0.00 0.00 0.00 79 1010.1
20260901214544 64 242 1.0 6.0 0.00 0.00 0.00 78 1010.1
20260901213107 65 225 1.0 6.0 0.00 0.00 0.00 77 1010.1
20260901211541 65 0 0.0 3.0 0.00 0.00 0.00 77 1010.1
20260901210045 64 0 1.0 8.0 0.00 0.00 0.00 78 1010.1
20260901204548 64 0 0.0 6.0 0.00 0.00 0.00 78 1010.3
20260901203043 64 0 1.0 8.0 0.00 0.00 0.00 77 1010.4
20260901201548 64 275 0.0 4.0 0.00 0.00 0.00 78 1010.3
20260901200046 64 0 0.0 5.0 0.00 0.00 0.00 77 1010.4
20260901194545 65 0 0.0 3.0 0.00 0.00 0.00 76 1010.4
20260901193042 65 0 0.0 4.0 0.00 0.00 0.00 76 1010.4
20260901191543 65 0 1.0 5.0 0.00 0.00 0.00 76 1010.4
20260901190049 64 0 0.0 3.0 0.00 0.00 0.00 78 1010.6
20260901184549 64 321 0.0 2.0 0.00 0.00 0.00 79 1010.8
20260901183041 64 261 1.0 4.0 0.00 0.00 0.00 79 1010.7
20260901181547 64 0 0.0 2.0 0.00 0.00 0.00 79 1010.6
20260901180044 63 0 0.0 2.0 0.00 0.00 0.00 81 1010.6
20260901174542 62 259 0.0 3.0 0.00 0.00 0.00 82 1010.5
20260901173042 64 232 1.0 3.0 0.00 0.00 0.00 78 1010.3
20260901171602 62 338 0.0 4.0 0.00 0.00 0.00 82 1010.2